Hovedside
METAR-TAF:

METAR-TAF

Lufthavner :

Tillamook, Oregon, USA

breddegrad: 45-25-06N, lengdegrad: 123-48-52W, høyde over havet: 11 m

Gjeldene værobservasjon

Denne rapporten ble laget for 34 minutter siden, klokken 04:15 UTC
Flau vind
Temperatur 6°C
Luftfuktighet 100%
Trykk 1016 hPa
Sikt: 0.8 km
Overskyet i en høyde av 400 ft
tåke

METAR: KTMK 220415Z AUTO 00000KT 1/2SM FG OVC004 06/06 A3001 RMK AO2

Tid: 21:49 (04:49 UTC)


TAF: fraværende

Værobservasjoner og værvarsel for over 4000 flyplasser (METAR- og TAF-rapporter).

Tilgjengelige stasjoner er representert av de røde og gule prikkene på kartet.

Hold musepekeren over prikken for å se navnet på stasjonen.

Klikk så for å se værobservasjoner og -varsler.

For å forandre kartet kan du klikke på den grønne knappen med svart kryss for å zoome inn, på den grønne knappen med strek for å zoome ut, eller på de grønne pilene for å se tilstøtende kart.


METAR-TAF: